Regional Weather Roundup
Issued by NWS

Home | Current Version | Previous Version | Graphics & Text | Print | Product List | Glossary On
Versions: 1 2 3 4 5 6 7 8 9 10 11 12 13 14 15 16 17 18 19 20 21 22 23 24 25 26 27
000
ASUS45 KPSR 191510
RWRAZ

ARIZONA HOURLY REGIONAL WEATHER ROUNDUP
NATIONAL WEATHER SERVICE PHOENIX AZ
800 AM MST MON FEB 19 2018

NOTE: FAIR INDICATES FEW OR NO CLOUDS BELOW 12,000 FEET WITH NO
SIGNIFICANT WEATHER AND/OR OBSTRUCTIONS TO VISIBILITY.

AZZ001>003-036-191600-
NORTHWEST ARIZONA

CITY           SKY/WX    TMP DP  RH WIND       PRES   REMARKS
BULLHEAD CITY  CLOUDY    55  21  26 W20G26    29.69R
KINGMAN        LGT RAIN  41  30  65 SW18      29.65R
$$

AZZ004>008-015-016-018-191600-
NORTH CENTRAL ARIZONA

CITY           SKY/WX    TMP DP  RH WIND       PRES   REMARKS
GRAND CANYON   CLOUDY    31  23  72 SW24G35   29.56R WCI  17
WILLIAMS       CLOUDY    34  27  75 SW29G40   29.58S WCI  20
PRESCOTT       PTCLDY    41  29  62 SW21G37   29.64R
FLAGSTAFF      CLOUDY    33  27  78 SW31G44   29.58S WCI  19
PAYSON         DRIZZLE   43  39  87 S14G23    29.69S
PAGE           PTCLDY    48  25  40 SW14G25   29.44R
$$

AZZ009>014-017-191600-
NORTHEAST ARIZONA

CITY           SKY/WX    TMP DP  RH WIND       PRES   REMARKS
WINSLOW        MOSUNNY   48  34  58 SW33G46   29.57R
SAINT JOHNS    CLOUDY    44  35  70 S10G21    29.68F
WINDOW ROCK    LGT RAIN  37  35  92 SW15G22   29.65R FOG     WCI  28
SHOW LOW       PTSUNNY   39  36  87 S39G47    29.65S WCI  26
$$

AZZ540-542>544-546-548-191600-
GREATER PHOENIX AREA

CITY           SKY/WX    TMP DP  RH WIND       PRES   REMARKS
PHOENIX        MOCLDY    59  50  72 S13       29.71R
BUCKEYE        CLOUDY    54  39  58 SW9       29.74S
GLENDALE       CLOUDY    59  54  82 SW8       29.74R
LUKE AFB       CLOUDY    58  50  77 SW10      29.71S
DEER VALLEY    CLOUDY    57  50  77 SW13      29.72R
SCOTTSDALE     MOCLDY    57  49  74 SE3       29.74R
MESA-FALCON    MOCLDY    59  48  67 S14       29.74R
MESA-GATEWAY   PTCLDY    64  46  52 S20G28    29.76R
CHANDLER       PTCLDY    57  50  77 SW7       29.74R
$$

AZZ539-553-191600-
SOUTHWEST MARICOPA COUNTY AND PINAL COUNTY

CITY           SKY/WX    TMP DP  RH WIND       PRES   REMARKS
CASA GRANDE      N/A     56  47  71 SW14      29.76R
GILA BEND      FAIR      59  49  69 SW14      29.73R
$$

AZZ503-504-507>509-191600-
SOUTHEAST ARIZONA

CITY           SKY/WX    TMP DP  RH WIND       PRES   REMARKS
TUCSON         CLOUDY    57  47  69 MISG      29.83R
DAVIS-MONTHAN  CLOUDY    56  50  79 W10       29.82R
RYAN FIELD     MOSUNNY   57  48  72 S18       29.83R
NOGALES        MOSUNNY   50  47  89 S14       29.85S
SIERRA VISTA   CLOUDY    50  42  74 S12       29.86R
DOUGLAS        CLOUDY    51  42  71 SW3       29.88R
SAFFORD        CLOUDY    51  50  96 E8        29.76R
$$

AZZ532-191600-
SOUTHWEST ARIZONA

CITY           SKY/WX    TMP DP  RH WIND       PRES   REMARKS
YUMA           CLEAR     48  37  65 CALM      29.76R
$$

CAZ041-043-047-048-061-525>527-560>570-191600-
SOUTHERN CALIFORNIA

CITY           SKY/WX    TMP DP  RH WIND       PRES   REMARKS
DOWNTOWN L.A.  CLEAR     49  19  30 NW6       29.88R
L.A. AIRPORT   PTCLDY    49  22  34 NW12G18   29.90R
SAN DIEGO      MOCLDY    55  38  52 W16G25    29.93S
BURBANK        CLEAR     46  21  37 N22G32    29.88R
ONTARIO        PTCLDY    46  40  79 SW6       29.82S
RIVERSIDE      LGT RAIN  48  40  73 W10       29.83R
PALM SPRINGS   CLEAR     56  29  35 N5        29.71R
EL CENTRO NAS  LGT RAIN  56  33  42 SW33G41   29.79R
IMPERIAL       PTCLDY    56  35  45 SW29G44   29.75S
BLYTHE         CLEAR     55  35  47 SW16      29.73R
NEEDLES        MOCLDY    54  22  28 W28G38    29.70R
$$

NVZ020-UTZ003-191600-
SOUTHERN NEVADA-UTAH

CITY           SKY/WX    TMP DP  RH WIND       PRES   REMARKS
LAS VEGAS      PTCLDY    44  10  25 SW12      29.63R
SALT LAKE CITY LGT SNOW  28  25  88 NW17      29.47R VSB 1   WCI  16
$$

NMZ009-TXZ055-191600-
NEW MEXICO-WEST TEXAS

CITY           SKY/WX    TMP DP  RH WIND       PRES   REMARKS
ALBUQUERQUE    PTSUNNY   46  39  76 S15       29.72F
EL PASO        CLOUDY    54  42  64 S5        29.84R
$$


........................KEY........................
SKY/WX - SKY CONDITION/WEATHER
TMP    - TEMPERATURE IN FAHRENHEIT
DP     - DEW POINT IN FAHRENHEIT
RH     - RELATIVE HUMIDITY IN PERCENT
WIND   - DIRECTION AND SPEED IN MILES PER HOUR (MPH)
VRB    - VARIABLE WIND DIRECTION
PRES   - MEAN SEA LEVEL PRESSURE IN INCHES OF MERCURY
         F - FALLING PRESSURE   R - RISING PRESSURE
         S - STEADY PRESSURE
VSB    - VISIBILITY IN MILES
HX     - HEAT INDEX IN FAHRENHEIT
WCI    - WIND CHILL INDEX IN FAHRENHEIT
TC     - TEMPERATURE IN CELSIUS WHICH IS ALSO KNOWN AS
         TEMPERATURE IN CENTIGRADE
AFB    - AIR FORCE BASE
         LUKE AFB IS LUKE AIR FORCE BASE
         DAVIS-MONTHAN IS DAVIS-MONTHAN AIR FORCE BASE
NAS    - NAVAL AIR STATION
         EL CENTRO NAS IS EL CENTRO NAVAL AIR STATION
N/A    - NOT AVAILABLE





USA.gov is the U.S. government's official web portal to all federal, state and local government web resources and services.